Time,TemperatureF,DewpointF,PressureIn,WindDirection,WindDirectionDegrees,WindSpeedMPH,WindSpeedGustMPH,Humidity,HourlyPrecipIn,Conditions,Clouds,dailyrainin,SoftwareType,DateUTC
2013-02-20 00:02:00,45.0,44.0,29.61,SW,217,4.0,-999.0,96,-99.99,,,-99.99,,2013-02-20 00:02:00,
2013-02-20 00:11:00,45.0,44.0,29.61,SW,217,4.0,-999.0,96,-99.99,,,-99.99,,2013-02-20 00:11:00,
2013-02-20 00:22:00,45.0,44.0,29.61,WSW,244,7.0,-999.0,96,-99.99,,,-99.99,,2013-02-20 00:22:00,
2013-02-20 00:32:00,45.0,43.0,29.61,SW,218,9.0,-999.0,94,-99.99,,,-99.99,,2013-02-20 00:32:00,
2013-02-20 00:42:00,45.0,43.0,29.61,SW,218,9.0,-999.0,94,-99.99,,,-99.99,,2013-02-20 00:42:00,
2013-02-20 00:52:00,45.0,43.0,29.62,WNW,292,7.0,-999.0,93,-99.99,,,-99.99,,2013-02-20 00:52:00,
2013-02-20 01:02:00,45.0,43.0,29.62,WNW,292,7.0,-999.0,93,-99.99,,,-99.99,,2013-02-20 01:02:00,
2013-02-20 01:11:00,45.0,43.0,29.62,WNW,292,7.0,-999.0,93,-99.99,,,-99.99,,2013-02-20 01:11:00,
2013-02-20 01:21:00,45.0,42.0,29.62,West,266,6.0,-999.0,90,-99.99,,,-99.99,,2013-02-20 01:21:00,
2013-02-20 01:32:00,44.0,41.0,29.62,West,269,5.0,-999.0,90,-99.99,,,-99.99,,2013-02-20 01:32:00,
2013-02-20 01:42:00,44.0,41.0,29.62,West,269,5.0,-999.0,90,-99.99,,,-99.99,,2013-02-20 01:42:00,
2013-02-20 01:52:00,44.0,41.0,29.62,NW,307,5.0,-999.0,89,-99.99,,,-99.99,,2013-02-20 01:52:00,
2013-02-20 02:02:00,44.0,41.0,29.62,West,277,4.0,-999.0,89,-99.99,,,-99.99,,2013-02-20 02:02:00,
2013-02-20 02:11:00,44.0,41.0,29.62,West,277,4.0,-999.0,89,-99.99,,,-99.99,,2013-02-20 02:11:00,
2013-02-20 02:21:00,43.0,39.0,29.62,West,267,4.0,-999.0,87,-99.99,,,-99.99,,2013-02-20 02:21:00,
2013-02-20 02:32:00,43.0,39.0,29.64,West,277,7.0,-999.0,86,-99.99,,,-99.99,,2013-02-20 02:32:00,
2013-02-20 02:42:00,43.0,39.0,29.64,West,277,7.0,-999.0,86,-99.99,,,-99.99,,2013-02-20 02:42:00,
2013-02-20 02:52:00,42.0,38.0,29.64,West,277,6.0,-999.0,86,-99.99,,,-99.99,,2013-02-20 02:52:00,
2013-02-20 03:02:00,42.0,38.0,29.65,West,266,4.0,-999.0,86,-99.99,,,-99.99,,2013-02-20 03:02:00,
2013-02-20 03:12:00,42.0,38.0,29.65,West,266,4.0,-999.0,86,-99.99,,,-99.99,,2013-02-20 03:12:00,
2013-02-20 03:22:00,42.0,38.0,29.65,West,277,4.0,-999.0,86,-99.99,,,-99.99,,2013-02-20 03:22:00,
2013-02-20 03:32:00,41.0,37.0,29.65,West,273,3.0,-999.0,86,-99.99,,,-99.99,,2013-02-20 03:32:00,
2013-02-20 03:42:00,41.0,37.0,29.65,West,273,3.0,-999.0,86,-99.99,,,-99.99,,2013-02-20 03:42:00,
2013-02-20 03:52:00,41.0,35.0,29.65,West,266,4.0,-999.0,79,-99.99,,,-99.99,,2013-02-20 03:52:00,
2013-02-20 04:01:00,40.0,32.0,29.66,WNW,293,7.0,-999.0,72,-99.99,,,-99.99,,2013-02-20 04:01:00,
2013-02-20 04:11:00,40.0,32.0,29.66,WNW,293,7.0,-999.0,72,-99.99,,,-99.99,,2013-02-20 04:11:00,
2013-02-20 04:21:00,39.0,31.0,29.67,WNW,300,3.0,-999.0,72,-99.99,,,-99.99,,2013-02-20 04:21:00,
2013-02-20 04:32:00,39.0,31.0,29.67,WNW,300,4.0,-999.0,72,-99.99,,,-99.99,,2013-02-20 04:32:00,
2013-02-20 04:42:00,39.0,31.0,29.67,WNW,300,4.0,-999.0,72,-99.99,,,-99.99,,2013-02-20 04:42:00,
2013-02-20 04:52:00,39.0,30.0,29.67,NW,308,5.0,-999.0,70,-99.99,,,-99.99,,2013-02-20 04:52:00,
2013-02-20 05:02:00,38.0,29.0,29.67,NW,315,4.0,-999.0,69,-99.99,,,-99.99,,2013-02-20 05:02:00,
2013-02-20 05:12:00,38.0,29.0,29.67,NW,315,4.0,-999.0,69,-99.99,,,-99.99,,2013-02-20 05:12:00,
2013-02-20 05:22:00,38.0,28.0,29.67,NW,315,4.0,-999.0,68,-99.99,,,-99.99,,2013-02-20 05:22:00,
2013-02-20 05:32:00,37.0,28.0,29.67,WNW,293,4.0,-999.0,69,-99.99,,,-99.99,,2013-02-20 05:32:00,
2013-02-20 05:43:00,37.0,28.0,29.67,WNW,293,4.0,-999.0,69,-99.99,,,-99.99,,2013-02-20 05:43:00,
2013-02-20 05:52:00,37.0,28.0,29.67,West,279,3.0,-999.0,70,-99.99,,,-99.99,,2013-02-20 05:52:00,
2013-02-20 06:02:00,36.0,27.0,29.67,WSW,257,4.0,-999.0,70,-99.99,,,-99.99,,2013-02-20 06:02:00,
2013-02-20 06:11:00,36.0,27.0,29.67,WSW,257,4.0,-999.0,70,-99.99,,,-99.99,,2013-02-20 06:11:00,
2013-02-20 06:22:00,36.0,26.0,29.68,WNW,300,5.0,-999.0,66,-99.99,,,-99.99,,2013-02-20 06:22:00,
2013-02-20 06:32:00,36.0,25.0,29.69,West,271,7.0,-999.0,65,-99.99,,,-99.99,,2013-02-20 06:32:00,
2013-02-20 06:42:00,36.0,25.0,29.69,West,271,7.0,-999.0,65,-99.99,,,-99.99,,2013-02-20 06:42:00,
2013-02-20 06:51:00,36.0,25.0,29.69,NW,323,7.0,-999.0,63,-99.99,,,-99.99,,2013-02-20 06:51:00,
2013-02-20 07:02:00,36.0,24.0,29.70,NW,313,5.0,-999.0,62,-99.99,,,-99.99,,2013-02-20 07:02:00,
2013-02-20 07:11:00,36.0,24.0,29.70,NW,313,5.0,-999.0,62,-99.99,,,-99.99,,2013-02-20 07:11:00,
2013-02-20 07:21:00,35.0,24.0,29.70,WNW,296,4.0,-999.0,64,-99.99,,,-99.99,,2013-02-20 07:21:00,
2013-02-20 07:32:00,35.0,24.0,29.70,West,264,5.0,-999.0,64,-99.99,,,-99.99,,2013-02-20 07:32:00,
2013-02-20 07:42:00,35.0,24.0,29.70,West,264,5.0,-999.0,64,-99.99,,,-99.99,,2013-02-20 07:42:00,
2013-02-20 07:52:00,34.0,22.0,29.70,West,281,6.0,-999.0,61,-99.99,,,-99.99,,2013-02-20 07:52:00,
2013-02-20 08:05:00,34.0,22.0,29.70,WNW,289,5.0,-999.0,61,-99.99,,,-99.99,,2013-02-20 08:05:00,
2013-02-20 08:11:00,34.0,22.0,29.70,WNW,289,5.0,-999.0,61,-99.99,,,-99.99,,2013-02-20 08:11:00,
2013-02-20 08:21:00,33.0,21.0,29.70,WNW,283,1.0,-999.0,62,-99.99,,,-99.99,,2013-02-20 08:21:00,
2013-02-20 08:31:00,33.0,22.0,29.71,West,272,1.0,-999.0,63,-99.99,,,-99.99,,2013-02-20 08:31:00,
2013-02-20 08:42:00,33.0,22.0,29.71,West,272,1.0,-999.0,63,-99.99,,,-99.99,,2013-02-20 08:42:00,
2013-02-20 08:52:00,32.0,21.0,29.71,WNW,292,2.0,-999.0,64,-99.99,,,-99.99,,2013-02-20 08:52:00,
2013-02-20 09:02:00,32.0,21.0,29.71,West,281,1.0,-999.0,64,-99.99,,,-99.99,,2013-02-20 09:02:00,
2013-02-20 09:11:00,32.0,21.0,29.71,West,281,1.0,-999.0,64,-99.99,,,-99.99,,2013-02-20 09:11:00,
2013-02-20 09:21:00,32.0,21.0,29.71,West,276,2.0,-999.0,64,-99.99,,,-99.99,,2013-02-20 09:21:00,
2013-02-20 09:32:00,33.0,21.0,29.72,WNW,294,5.0,-999.0,62,-99.99,,,-99.99,,2013-02-20 09:32:00,
2013-02-20 09:42:00,33.0,21.0,29.72,WNW,294,5.0,-999.0,62,-99.99,,,-99.99,,2013-02-20 09:42:00,
2013-02-20 09:51:00,33.0,22.0,29.72,WSW,244,3.0,-999.0,63,-99.99,,,-99.99,,2013-02-20 09:51:00,
2013-02-20 10:01:00,33.0,22.0,29.72,WNW,296,5.0,-999.0,63,-99.99,,,-99.99,,2013-02-20 10:01:00,
2013-02-20 10:12:00,33.0,22.0,29.72,WNW,296,5.0,-999.0,63,-99.99,,,-99.99,,2013-02-20 10:12:00,
2013-02-20 10:22:00,33.0,22.0,29.73,WSW,255,4.0,-999.0,63,-99.99,,,-99.99,,2013-02-20 10:22:00,
2013-02-20 10:32:00,33.0,21.0,29.74,WNW,286,8.0,-999.0,62,-99.99,,,-99.99,,2013-02-20 10:32:00,
2013-02-20 10:42:00,33.0,21.0,29.74,WNW,286,8.0,-999.0,62,-99.99,,,-99.99,,2013-02-20 10:42:00,
2013-02-20 10:51:00,32.0,20.0,29.74,WNW,295,10.0,-999.0,60,-99.99,,,-99.99,,2013-02-20 10:51:00,
2013-02-20 11:02:00,32.0,20.0,29.75,WNW,300,7.0,-999.0,61,-99.99,,,-99.99,,2013-02-20 11:02:00,
2013-02-20 11:11:00,31.0,19.0,29.75,NW,311,4.0,-999.0,61,-99.99,,,-99.99,,2013-02-20 11:11:00,
2013-02-20 11:21:00,31.0,19.0,29.75,NW,311,4.0,-999.0,61,-99.99,,,-99.99,,2013-02-20 11:21:00,
2013-02-20 11:32:00,31.0,20.0,29.75,West,269,3.0,-999.0,62,-99.99,,,-99.99,,2013-02-20 11:32:00,
2013-02-20 11:42:00,31.0,20.0,29.75,West,269,3.0,-999.0,62,-99.99,,,-99.99,,2013-02-20 11:42:00,
2013-02-20 11:52:00,30.0,19.0,29.76,NW,306,4.0,-999.0,62,-99.99,,,-99.99,,2013-02-20 11:52:00,
2013-02-20 12:02:00,30.0,19.0,29.77,WNW,297,3.0,-999.0,62,-99.99,,,-99.99,,2013-02-20 12:02:00,
2013-02-20 12:12:00,30.0,19.0,29.77,WNW,297,3.0,-999.0,62,-99.99,,,-99.99,,2013-02-20 12:12:00,
2013-02-20 12:22:00,30.0,19.0,29.78,WNW,303,2.0,-999.0,63,-99.99,,,-99.99,,2013-02-20 12:22:00,
2013-02-20 12:32:00,30.0,19.0,29.78,NW,304,3.0,-999.0,62,-99.99,,,-99.99,,2013-02-20 12:32:00,
2013-02-20 12:42:00,30.0,19.0,29.78,NW,304,3.0,-999.0,62,-99.99,,,-99.99,,2013-02-20 12:42:00,
2013-02-20 12:52:00,30.0,19.0,29.80,West,269,6.0,-999.0,63,-99.99,,,-99.99,,2013-02-20 12:52:00,
2013-02-20 13:01:00,30.0,19.0,29.80,WNW,294,5.0,-999.0,63,-99.99,,,-99.99,,2013-02-20 13:01:00,
2013-02-20 13:11:00,30.0,19.0,29.80,WNW,294,5.0,-999.0,63,-99.99,,,-99.99,,2013-02-20 13:11:00,
2013-02-20 13:22:00,30.0,19.0,29.80,West,281,4.0,-999.0,63,-99.99,,,-99.99,,2013-02-20 13:22:00,
2013-02-20 13:32:00,30.0,20.0,29.82,West,274,8.0,-999.0,66,-99.99,,,-99.99,,2013-02-20 13:32:00,
2013-02-20 13:42:00,30.0,20.0,29.82,West,274,8.0,-999.0,66,-99.99,,,-99.99,,2013-02-20 13:42:00,
2013-02-20 13:51:00,29.0,20.0,29.82,WNW,284,7.0,-999.0,68,-99.99,,,-99.99,,2013-02-20 13:51:00,
2013-02-20 14:01:00,29.0,20.0,29.83,WNW,290,10.0,-999.0,70,-99.99,,,-99.99,,2013-02-20 14:01:00,
2013-02-20 14:11:00,29.0,20.0,29.83,WNW,290,10.0,-999.0,70,-99.99,,,-99.99,,2013-02-20 14:11:00,
2013-02-20 14:22:00,29.0,17.0,29.83,NW,317,11.0,-999.0,61,-99.99,,,-99.99,,2013-02-20 14:22:00,
2013-02-20 14:32:00,30.0,17.0,29.82,WSW,255,9.0,-999.0,59,-99.99,,,-99.99,,2013-02-20 14:32:00,
2013-02-20 14:42:00,30.0,17.0,29.82,WSW,255,9.0,-999.0,59,-99.99,,,-99.99,,2013-02-20 14:42:00,
2013-02-20 14:52:00,30.0,16.0,29.82,WNW,284,10.0,-999.0,56,-99.99,,,-99.99,,2013-02-20 14:52:00,
2013-02-20 15:02:00,30.0,16.0,29.82,NW,313,8.0,-999.0,55,-99.99,,,-99.99,,2013-02-20 15:02:00,
2013-02-20 15:11:00,30.0,16.0,29.82,NW,313,8.0,-999.0,55,-99.99,,,-99.99,,2013-02-20 15:11:00,
2013-02-20 15:22:00,30.0,15.0,29.82,WNW,300,9.0,-999.0,54,-99.99,,,-99.99,,2013-02-20 15:22:00,
2013-02-20 15:32:00,30.0,16.0,29.83,West,275,9.0,-999.0,56,-99.99,,,-99.99,,2013-02-20 15:32:00,
2013-02-20 15:42:00,30.0,16.0,29.83,West,275,9.0,-999.0,56,-99.99,,,-99.99,,2013-02-20 15:42:00,
2013-02-20 15:52:00,30.0,16.0,29.82,WSW,255,10.0,-999.0,56,-99.99,,,-99.99,,2013-02-20 15:52:00,
2013-02-20 16:01:00,30.0,15.0,29.82,WNW,296,10.0,-999.0,53,-99.99,,,-99.99,,2013-02-20 16:01:00,
2013-02-20 16:12:00,30.0,15.0,29.82,WNW,296,10.0,-999.0,53,-99.99,,,-99.99,,2013-02-20 16:12:00,
2013-02-20 16:21:00,30.0,16.0,29.82,NW,312,11.0,-999.0,55,-99.99,,,-99.99,,2013-02-20 16:21:00,
2013-02-20 16:32:00,31.0,16.0,29.82,West,265,9.0,-999.0,53,-99.99,,,-99.99,,2013-02-20 16:32:00,
2013-02-20 16:42:00,31.0,16.0,29.82,West,265,9.0,-999.0,53,-99.99,,,-99.99,,2013-02-20 16:42:00,
2013-02-20 16:52:00,30.0,15.0,29.82,WNW,290,10.0,-999.0,53,-99.99,,,-99.99,,2013-02-20 16:52:00,
2013-02-20 17:01:00,31.0,15.0,29.82,NW,320,9.0,-999.0,52,-99.99,,,-99.99,,2013-02-20 17:01:00,
2013-02-20 17:11:00,31.0,15.0,29.81,NW,306,9.0,-999.0,51,-99.99,,,-99.99,,2013-02-20 17:11:00,
2013-02-20 17:21:00,31.0,15.0,29.81,NW,306,9.0,-999.0,51,-99.99,,,-99.99,,2013-02-20 17:21:00,
2013-02-20 17:32:00,31.0,14.0,29.81,West,277,10.0,-999.0,49,-99.99,,,-99.99,,2013-02-20 17:32:00,
2013-02-20 17:42:00,31.0,14.0,29.81,West,277,10.0,-999.0,49,-99.99,,,-99.99,,2013-02-20 17:42:00,
2013-02-20 17:52:00,31.0,14.0,29.80,West,273,12.0,-999.0,49,-99.99,,,-99.99,,2013-02-20 17:52:00,
2013-02-20 18:02:00,32.0,15.0,29.80,West,265,7.0,-999.0,49,-99.99,,,-99.99,,2013-02-20 18:02:00,
2013-02-20 18:11:00,32.0,15.0,29.80,West,265,7.0,-999.0,49,-99.99,,,-99.99,,2013-02-20 18:11:00,
2013-02-20 18:22:00,32.0,15.0,29.80,West,265,7.0,-999.0,49,-99.99,,,-99.99,,2013-02-20 18:22:00,
2013-02-20 18:32:00,32.0,15.0,29.80,WNW,299,10.0,-999.0,48,-99.99,,,-99.99,,2013-02-20 18:32:00,
2013-02-20 18:42:00,32.0,15.0,29.80,WNW,299,10.0,-999.0,48,-99.99,,,-99.99,,2013-02-20 18:42:00,
2013-02-20 18:52:00,32.0,15.0,29.80,WNW,300,10.0,-999.0,48,-99.99,,,-99.99,,2013-02-20 18:52:00,
2013-02-20 19:01:00,31.0,14.0,29.80,West,269,10.0,-999.0,49,-99.99,,,-99.99,,2013-02-20 19:01:00,
2013-02-20 19:11:00,31.0,14.0,29.80,West,269,10.0,-999.0,49,-99.99,,,-99.99,,2013-02-20 19:11:00,
2013-02-20 19:21:00,32.0,15.0,29.81,West,275,10.0,-999.0,49,-99.99,,,-99.99,,2013-02-20 19:21:00,
2013-02-20 19:32:00,31.0,14.0,29.82,West,277,9.0,-999.0,49,-99.99,,,-99.99,,2013-02-20 19:32:00,
2013-02-20 19:41:00,31.0,14.0,29.82,West,277,9.0,-999.0,49,-99.99,,,-99.99,,2013-02-20 19:41:00,
2013-02-20 19:52:00,31.0,15.0,29.82,West,271,9.0,-999.0,50,-99.99,,,-99.99,,2013-02-20 19:52:00,
2013-02-20 20:01:00,31.0,15.0,29.83,WNW,288,11.0,-999.0,51,-99.99,,,-99.99,,2013-02-20 20:01:00,
2013-02-20 20:11:00,30.0,14.0,29.83,WSW,250,12.0,-999.0,51,-99.99,,,-99.99,,2013-02-20 20:11:00,
2013-02-20 20:21:00,30.0,14.0,29.83,WSW,250,12.0,-999.0,51,-99.99,,,-99.99,,2013-02-20 20:21:00,
2013-02-20 20:31:00,31.0,15.0,29.83,West,259,8.0,-999.0,51,-99.99,,,-99.99,,2013-02-20 20:31:00,
2013-02-20 20:41:00,30.0,14.0,29.83,West,275,13.0,-999.0,51,-99.99,,,-99.99,,2013-02-20 20:41:00,
2013-02-20 20:51:00,30.0,14.0,29.83,West,275,13.0,-999.0,51,-99.99,,,-99.99,,2013-02-20 20:51:00,
2013-02-20 21:01:00,30.0,14.0,29.84,West,267,12.0,-999.0,51,-99.99,,,-99.99,,2013-02-20 21:01:00,
2013-02-20 21:11:00,30.0,14.0,29.84,West,267,12.0,-999.0,51,-99.99,,,-99.99,,2013-02-20 21:11:00,
2013-02-20 21:21:00,30.0,15.0,29.85,NW,317,8.0,-999.0,52,-99.99,,,-99.99,,2013-02-20 21:21:00,
2013-02-20 21:32:00,30.0,14.0,29.85,NW,310,12.0,-999.0,50,-99.99,,,-99.99,,2013-02-20 21:32:00,
2013-02-20 21:42:00,30.0,14.0,29.85,NW,310,12.0,-999.0,50,-99.99,,,-99.99,,2013-02-20 21:42:00,
2013-02-20 21:51:00,30.0,15.0,29.85,WNW,298,6.0,-999.0,52,-99.99,,,-99.99,,2013-02-20 21:51:00,
2013-02-20 22:02:00,30.0,15.0,29.86,WNW,298,7.0,-999.0,52,-99.99,,,-99.99,,2013-02-20 22:02:00,
2013-02-20 22:11:00,30.0,15.0,29.86,WNW,298,7.0,-999.0,52,-99.99,,,-99.99,,2013-02-20 22:11:00,
2013-02-20 22:21:00,30.0,13.0,29.85,West,270,9.0,-999.0,49,-99.99,,,-99.99,,2013-02-20 22:21:00,
2013-02-20 22:31:00,30.0,15.0,29.87,West,274,6.0,-999.0,52,-99.99,,,-99.99,,2013-02-20 22:31:00,
2013-02-20 22:51:00,29.0,14.0,29.88,NW,305,6.0,-999.0,53,-99.99,,,-99.99,,2013-02-20 22:51:00,
2013-02-20 23:01:00,29.0,14.0,29.88,West,269,9.0,-999.0,52,-99.99,,,-99.99,,2013-02-20 23:01:00,
2013-02-20 23:12:00,29.0,14.0,29.88,West,269,9.0,-999.0,52,-99.99,,,-99.99,,2013-02-20 23:12:00,
2013-02-20 23:22:00,29.0,13.0,29.88,WSW,257,8.0,-999.0,51,-99.99,,,-99.99,,2013-02-20 23:22:00,
2013-02-20 23:32:00,29.0,14.0,29.89,West,277,8.0,-999.0,52,-99.99,,,-99.99,,2013-02-20 23:32:00,
2013-02-20 23:42:00,29.0,14.0,29.89,West,277,8.0,-999.0,52,-99.99,,,-99.99,,2013-02-20 23:42:00,
2013-02-20 23:52:00,29.0,13.0,29.89,West,277,9.0,-999.0,51,-99.99,,,-99.99,,2013-02-20 23:52:00,